Wetterdaten: Sonntag, 02.08.2015
Datum Zeit Auen-Temp. Temp gefhlt Luftfeuchte Luftdruck Regen Wind Richtung Richtung Taupunkt Windben
02.08.2015 00:00 13,8 C 13,7 C 85 % 1012,1 hPa 0,0 mm 0,0 km/h (0 Bft) NO 45 11,3 C 0,0 km/h (0 Bft)
02.08.2015 00:05 13,7 C 13,6 C 84 % 1012,1 hPa 0,0 mm 0,0 km/h (0 Bft) O-NO 67 11,0 C 0,0 km/h (0 Bft)
02.08.2015 00:10 13,7 C 13,6 C 86 % 1012,3 hPa 0,0 mm 0,0 km/h (0 Bft) O-NO 67 11,4 C 0,0 km/h (0 Bft)
02.08.2015 00:15 13,7 C 13,6 C 86 % 1012,3 hPa 0,0 mm 0,0 km/h (0 Bft) N-NO 22 11,4 C 0,0 km/h (0 Bft)
02.08.2015 00:20 13,7 C 13,6 C 86 % 1012,3 hPa 0,0 mm 0,0 km/h (0 Bft) NO 45 11,4 C 0,0 km/h (0 Bft)
02.08.2015 00:25 13,6 C 13,5 C 84 % 1012,3 hPa 0,0 mm 0,0 km/h (0 Bft) NO 45 10,9 C 0,0 km/h (0 Bft)
02.08.2015 00:30 13,6 C 13,5 C 84 % 1012,3 hPa 0,0 mm 0,0 km/h (0 Bft) NO 45 10,9 C 0,0 km/h (0 Bft)
02.08.2015 00:35 13,6 C 13,5 C 84 % 1012,3 hPa 0,0 mm 0,0 km/h (0 Bft) O-NO 67 10,9 C 0,0 km/h (0 Bft)
02.08.2015 00:40 13,6 C 13,5 C 86 % 1012,3 hPa 0,0 mm 0,0 km/h (0 Bft) NO 45 11,3 C 0,0 km/h (0 Bft)
02.08.2015 00:45 13,6 C 13,5 C 87 % 1012,3 hPa 0,0 mm 0,0 km/h (0 Bft) NO 45 11,5 C 0,0 km/h (0 Bft)
02.08.2015 00:50 13,6 C 13,5 C 87 % 1012,4 hPa 0,0 mm 0,0 km/h (0 Bft) O-NO 67 11,5 C 0,0 km/h (0 Bft)
02.08.2015 00:55 13,5 C 13,4 C 87 % 1012,4 hPa 0,0 mm 0,0 km/h (0 Bft) O-NO 67 11,4 C 0,0 km/h (0 Bft)
02.08.2015 01:00 13,5 C 13,4 C 87 % 1012,4 hPa 0,0 mm 0,0 km/h (0 Bft) N 360 11,4 C 0,0 km/h (0 Bft)
02.08.2015 01:05 13,6 C 13,5 C 87 % 1012,4 hPa 0,0 mm 0,0 km/h (0 Bft) NO 45 11,5 C 0,0 km/h (0 Bft)
02.08.2015 01:10 13,5 C 13,4 C 87 % 1012,4 hPa 0,0 mm 0,0 km/h (0 Bft) O-NO 67 11,4 C 0,0 km/h (0 Bft)
02.08.2015 01:15 13,5 C 13,4 C 87 % 1012,4 hPa 0,0 mm 0,0 km/h (0 Bft) N-NO 22 11,4 C 0,0 km/h (0 Bft)
02.08.2015 01:20 13,6 C 13,5 C 87 % 1012,4 hPa 0,0 mm 0,0 km/h (0 Bft) N-NO 22 11,5 C 0,0 km/h (0 Bft)
02.08.2015 01:25 13,6 C 13,5 C 87 % 1012,4 hPa 0,0 mm 0,0 km/h (0 Bft) N-NO 22 11,5 C 0,0 km/h (0 Bft)
02.08.2015 01:30 13,6 C 13,5 C 87 % 1012,2 hPa 0,0 mm 0,0 km/h (0 Bft) O-NO 67 11,5 C 0,0 km/h (0 Bft)
02.08.2015 01:35 13,6 C 13,5 C 87 % 1012,2 hPa 0,0 mm 0,0 km/h (0 Bft) O-NO 67 11,5 C 0,0 km/h (0 Bft)
02.08.2015 01:40 13,6 C 13,5 C 87 % 1012,2 hPa 0,0 mm 0,0 km/h (0 Bft) NO 45 11,5 C 0,0 km/h (0 Bft)
02.08.2015 01:45 13,6 C 13,5 C 87 % 1012,2 hPa 0,0 mm 0,0 km/h (0 Bft) O-NO 67 11,5 C 0,0 km/h (0 Bft)
02.08.2015 01:50 13,6 C 13,5 C 88 % 1012,3 hPa 0,7 mm 0,0 km/h (0 Bft) NO 45 11,6 C 0,0 km/h (0 Bft)
02.08.2015 01:55 13,6 C 13,5 C 88 % 1012,3 hPa 0,0 mm 0,0 km/h (0 Bft) O-NO 67 11,6 C 0,0 km/h (0 Bft)
02.08.2015 02:00 13,6 C 13,6 C 86 % 1012,3 hPa 0,0 mm 0,0 km/h (0 Bft) O-NO 67 11,3 C 0,0 km/h (0 Bft)
02.08.2015 02:05 13,6 C 13,6 C 86 % 1012,3 hPa 0,0 mm 0,0 km/h (0 Bft) O-NO 67 11,3 C 0,0 km/h (0 Bft)
02.08.2015 02:10 13,7 C 13,6 C 88 % 1012,4 hPa 0,0 mm 0,0 km/h (0 Bft) O-NO 67 11,7 C 0,0 km/h (0 Bft)
02.08.2015 02:15 13,7 C 13,6 C 88 % 1012,4 hPa 0,0 mm 0,3 km/h (0 Bft) NO 45 11,7 C 0,0 km/h (0 Bft)
02.08.2015 02:20 13,6 C 13,6 C 86 % 1012,4 hPa 0,0 mm 0,3 km/h (0 Bft) O-NO 67 11,3 C 0,0 km/h (0 Bft)
02.08.2015 02:25 13,7 C 13,6 C 88 % 1012,4 hPa 0,0 mm 0,0 km/h (0 Bft) NO 45 11,7 C 0,0 km/h (0 Bft)
02.08.2015 02:30 13,6 C 13,6 C 86 % 1012,4 hPa 0,0 mm 0,0 km/h (0 Bft) O-NO 67 11,3 C 0,0 km/h (0 Bft)
02.08.2015 02:35 13,7 C 13,6 C 88 % 1012,4 hPa 0,0 mm 0,0 km/h (0 Bft) S-SW 202 11,7 C 0,0 km/h (0 Bft)
02.08.2015 02:40 13,6 C 13,6 C 86 % 1012,4 hPa 0,0 mm 0,3 km/h (0 Bft) W-SW 247 11,3 C 0,0 km/h (0 Bft)
02.08.2015 02:45 13,6 C 13,6 C 86 % 1012,4 hPa 0,0 mm 0,8 km/h (0 Bft) W 270 11,3 C 2,6 km/h (1 Bft)
02.08.2015 02:50 13,7 C 13,6 C 88 % 1012,6 hPa 0,0 mm 1,6 km/h (1 Bft) SW 225 11,7 C 8,0 km/h (2 Bft)
02.08.2015 02:55 13,7 C 13,5 C 88 % 1012,6 hPa 0,0 mm 2,3 km/h (1 Bft) SW 225 11,7 C 5,7 km/h (1 Bft)
02.08.2015 03:00 13,6 C 13,5 C 88 % 1012,6 hPa 0,0 mm 3,6 km/h (1 Bft) SW 225 11,6 C 8,8 km/h (2 Bft)
02.08.2015 03:05 13,6 C 13,5 C 88 % 1012,6 hPa 0,0 mm 3,6 km/h (1 Bft) W-SW 247 11,6 C 4,9 km/h (1 Bft)
02.08.2015 03:10 13,5 C 13,4 C 88 % 1012,6 hPa 0,0 mm 2,1 km/h (1 Bft) W-SW 247 11,6 C 3,1 km/h (1 Bft)
02.08.2015 03:15 13,5 C 13,4 C 88 % 1012,6 hPa 0,0 mm 1,6 km/h (1 Bft) SW 225 11,6 C 2,8 km/h (1 Bft)
02.08.2015 03:20 13,4 C 13,3 C 88 % 1012,6 hPa 0,0 mm 1,6 km/h (1 Bft) S-SO 157 11,5 C 0,0 km/h (0 Bft)
02.08.2015 03:24 13,4 C 13,3 C 88 % 1012,6 hPa 0,0 mm 0,8 km/h (0 Bft) S-SO 157 11,5 C 0,0 km/h (0 Bft)
02.08.2015 03:25 13,4 C 13,3 C 88 % 1012,6 hPa 0,0 mm 0,8 km/h (0 Bft) S-SO 157 11,5 C 0,0 km/h (0 Bft)
02.08.2015 03:30 13,4 C 13,3 C 88 % 1012,4 hPa 0,0 mm 0,3 km/h (0 Bft) O-SO 112 11,5 C 0,0 km/h (0 Bft)
02.08.2015 03:35 13,4 C 13,3 C 88 % 1012,4 hPa 0,0 mm 0,0 km/h (0 Bft) O-SO 112 11,5 C 0,0 km/h (0 Bft)
02.08.2015 03:40 13,3 C 13,2 C 88 % 1012,4 hPa 0,7 mm 0,0 km/h (0 Bft) O-SO 112 11,4 C 0,0 km/h (0 Bft)
02.08.2015 03:45 13,4 C 13,3 C 88 % 1012,4 hPa 0,0 mm 0,0 km/h (0 Bft) O-SO 112 11,5 C 0,0 km/h (0 Bft)
02.08.2015 03:50 13,4 C 13,3 C 89 % 1012,5 hPa 0,0 mm 0,0 km/h (0 Bft) O-SO 112 11,6 C 0,0 km/h (0 Bft)
02.08.2015 03:55 13,4 C 13,3 C 89 % 1012,5 hPa 0,0 mm 0,0 km/h (0 Bft) O-SO 112 11,6 C 0,0 km/h (0 Bft)
02.08.2015 04:00 13,4 C 13,3 C 89 % 1012,5 hPa 0,0 mm 0,3 km/h (0 Bft) S-SW 202 11,6 C 0,0 km/h (0 Bft)
02.08.2015 04:05 13,3 C 13,2 C 89 % 1012,5 hPa 0,0 mm 0,3 km/h (0 Bft) S 180 11,5 C 0,0 km/h (0 Bft)
02.08.2015 04:10 13,3 C 13,2 C 89 % 1012,6 hPa 0,0 mm 0,0 km/h (0 Bft) W-SW 247 11,5 C 0,0 km/h (0 Bft)
02.08.2015 04:15 13,3 C 13,2 C 89 % 1012,6 hPa 0,0 mm 0,0 km/h (0 Bft) S 180 11,5 C 0,0 km/h (0 Bft)
02.08.2015 04:20 13,3 C 13,2 C 89 % 1012,6 hPa 0,0 mm 0,3 km/h (0 Bft) SW 225 11,5 C 3,4 km/h (1 Bft)
02.08.2015 04:25 13,3 C 13,2 C 89 % 1012,6 hPa 0,0 mm 0,3 km/h (0 Bft) SO 135 11,5 C 0,0 km/h (0 Bft)
02.08.2015 04:30 13,3 C 13,2 C 89 % 1012,6 hPa 0,0 mm 0,3 km/h (0 Bft) SO 135 11,5 C 0,0 km/h (0 Bft)
02.08.2015 04:35 13,3 C 13,2 C 89 % 1012,6 hPa 0,0 mm 0,0 km/h (0 Bft) SW 225 11,5 C 0,0 km/h (0 Bft)
02.08.2015 04:40 13,3 C 13,2 C 89 % 1012,6 hPa 0,0 mm 0,0 km/h (0 Bft) SO 135 11,5 C 0,0 km/h (0 Bft)
02.08.2015 04:45 13,3 C 13,2 C 89 % 1012,6 hPa 0,0 mm 0,0 km/h (0 Bft) SO 135 11,5 C 0,0 km/h (0 Bft)
02.08.2015 04:50 13,3 C 13,2 C 89 % 1012,4 hPa 0,0 mm 0,0 km/h (0 Bft) S 180 11,5 C 0,0 km/h (0 Bft)
02.08.2015 04:55 13,3 C 13,2 C 89 % 1012,4 hPa 0,0 mm 0,3 km/h (0 Bft) SO 135 11,5 C 4,1 km/h (1 Bft)
02.08.2015 05:00 13,3 C 13,2 C 89 % 1012,4 hPa 0,0 mm 0,5 km/h (0 Bft) SW 225 11,5 C 7,3 km/h (2 Bft)
02.08.2015 05:05 13,3 C 13,2 C 89 % 1012,4 hPa 0,0 mm 1,3 km/h (1 Bft) S-SO 157 11,5 C 4,1 km/h (1 Bft)
02.08.2015 05:10 13,3 C 13,2 C 89 % 1012,6 hPa 0,0 mm 1,8 km/h (1 Bft) SO 135 11,5 C 0,0 km/h (0 Bft)
02.08.2015 05:15 13,3 C 13,2 C 89 % 1012,6 hPa 0,7 mm 1,8 km/h (1 Bft) SO 135 11,5 C 0,0 km/h (0 Bft)
02.08.2015 05:20 13,3 C 13,2 C 89 % 1012,6 hPa 0,0 mm 0,5 km/h (0 Bft) SO 135 11,5 C 0,0 km/h (0 Bft)
02.08.2015 05:25 13,3 C 13,2 C 89 % 1012,6 hPa 0,0 mm 0,3 km/h (0 Bft) O-SO 112 11,5 C 0,0 km/h (0 Bft)
02.08.2015 05:30 13,3 C 13,2 C 89 % 1012,8 hPa 0,0 mm 0,3 km/h (0 Bft) O-SO 112 11,5 C 0,0 km/h (0 Bft)
02.08.2015 05:35 13,3 C 13,2 C 89 % 1012,8 hPa 0,0 mm 0,0 km/h (0 Bft) SO 135 11,5 C 0,0 km/h (0 Bft)
02.08.2015 05:40 13,4 C 13,3 C 89 % 1012,8 hPa 0,0 mm 0,5 km/h (0 Bft) NW 315 11,6 C 0,0 km/h (0 Bft)
02.08.2015 05:45 13,4 C 13,3 C 89 % 1012,8 hPa 0,0 mm 0,8 km/h (0 Bft) S-SO 157 11,6 C 0,0 km/h (0 Bft)
02.08.2015 05:50 13,4 C 13,3 C 89 % 1012,9 hPa 0,7 mm 0,3 km/h (0 Bft) S-SO 157 11,6 C 0,0 km/h (0 Bft)
02.08.2015 05:55 13,4 C 13,3 C 89 % 1012,9 hPa 0,0 mm 0,0 km/h (0 Bft) S-SO 157 11,6 C 0,0 km/h (0 Bft)
02.08.2015 06:00 13,4 C 13,3 C 89 % 1012,9 hPa 0,0 mm 0,0 km/h (0 Bft) SW 225 11,6 C 0,0 km/h (0 Bft)
02.08.2015 06:05 13,4 C 13,3 C 89 % 1012,9 hPa 0,0 mm 0,0 km/h (0 Bft) S-SW 202 11,6 C 0,0 km/h (0 Bft)
02.08.2015 06:10 13,4 C 13,3 C 89 % 1013,1 hPa 0,0 mm 0,3 km/h (0 Bft) S 180 11,6 C 0,0 km/h (0 Bft)
02.08.2015 06:15 13,4 C 13,3 C 89 % 1013,1 hPa 0,7 mm 0,3 km/h (0 Bft) S-SO 157 11,6 C 0,0 km/h (0 Bft)
02.08.2015 06:20 13,4 C 13,3 C 89 % 1013,1 hPa 0,0 mm 0,0 km/h (0 Bft) S 180 11,6 C 0,0 km/h (0 Bft)
02.08.2015 06:25 13,4 C 13,3 C 89 % 1013,1 hPa 0,0 mm 0,5 km/h (0 Bft) S 180 11,6 C 0,0 km/h (0 Bft)
02.08.2015 06:30 13,5 C 13,4 C 89 % 1013,1 hPa 0,0 mm 1,3 km/h (1 Bft) S 180 11,7 C 0,0 km/h (0 Bft)
02.08.2015 06:35 13,5 C 13,4 C 89 % 1013,1 hPa 0,0 mm 0,5 km/h (0 Bft) S 180 11,7 C 0,0 km/h (0 Bft)
02.08.2015 06:40 13,5 C 13,4 C 89 % 1013,1 hPa 0,0 mm 0,0 km/h (0 Bft) S 180 11,7 C 0,0 km/h (0 Bft)
02.08.2015 06:45 13,5 C 13,4 C 89 % 1013,1 hPa 0,0 mm 0,3 km/h (0 Bft) S 180 11,7 C 0,0 km/h (0 Bft)
02.08.2015 06:50 13,6 C 13,5 C 90 % 1013,4 hPa 0,0 mm 0,3 km/h (0 Bft) S-SO 157 12,0 C 0,0 km/h (0 Bft)
02.08.2015 06:55 13,6 C 13,5 C 90 % 1013,4 hPa 0,0 mm 0,0 km/h (0 Bft) S 180 12,0 C 0,0 km/h (0 Bft)
02.08.2015 07:00 13,6 C 13,6 C 87 % 1013,4 hPa 0,0 mm 0,0 km/h (0 Bft) S 180 11,5 C 0,0 km/h (0 Bft)
02.08.2015 07:05 13,6 C 13,6 C 87 % 1013,4 hPa 0,0 mm 0,0 km/h (0 Bft) W-SW 247 11,5 C 0,0 km/h (0 Bft)
02.08.2015 07:10 13,6 C 13,7 C 87 % 1013,4 hPa 0,0 mm 0,0 km/h (0 Bft) SW 225 11,5 C 0,0 km/h (0 Bft)
02.08.2015 07:15 13,6 C 13,7 C 87 % 1013,4 hPa 0,0 mm 0,5 km/h (0 Bft) W-SW 247 11,5 C 4,1 km/h (1 Bft)
02.08.2015 07:20 13,6 C 13,6 C 87 % 1013,4 hPa 0,0 mm 1,8 km/h (1 Bft) S-SW 202 11,5 C 3,4 km/h (1 Bft)
02.08.2015 07:25 13,6 C 13,7 C 87 % 1013,4 hPa 0,7 mm 1,6 km/h (1 Bft) W-SW 247 11,5 C 0,0 km/h (0 Bft)
02.08.2015 07:30 13,7 C 13,7 C 87 % 1013,5 hPa 0,0 mm 0,0 km/h (0 Bft) SW 225 11,6 C 0,0 km/h (0 Bft)
02.08.2015 07:35 13,7 C 13,7 C 87 % 1013,5 hPa 0,0 mm 0,0 km/h (0 Bft) W-SW 247 11,6 C 0,0 km/h (0 Bft)
02.08.2015 07:40 13,7 C 13,7 C 87 % 1013,5 hPa 0,0 mm 0,0 km/h (0 Bft) S 180 11,6 C 0,0 km/h (0 Bft)
02.08.2015 07:45 13,7 C 13,7 C 87 % 1013,5 hPa 0,0 mm 0,8 km/h (0 Bft) S 180 11,6 C 0,0 km/h (0 Bft)
02.08.2015 07:50 13,7 C 13,7 C 87 % 1013,6 hPa 0,0 mm 0,8 km/h (0 Bft) S-SO 157 11,6 C 0,0 km/h (0 Bft)
02.08.2015 07:55 13,7 C 13,8 C 87 % 1013,6 hPa 0,0 mm 0,3 km/h (0 Bft) S 180 11,6 C 4,7 km/h (1 Bft)
02.08.2015 08:00 13,8 C 13,8 C 87 % 1013,6 hPa 0,0 mm 1,0 km/h (0 Bft) SW 225 11,7 C 6,0 km/h (2 Bft)
02.08.2015 08:05 13,8 C 13,9 C 87 % 1013,6 hPa 0,0 mm 1,6 km/h (1 Bft) S-SW 202 11,7 C 3,6 km/h (1 Bft)
02.08.2015 08:10 13,9 C 14,0 C 87 % 1013,6 hPa 0,0 mm 1,3 km/h (1 Bft) S-SW 202 11,8 C 0,0 km/h (0 Bft)
02.08.2015 08:15 13,9 C 14,0 C 87 % 1013,6 hPa 0,0 mm 0,5 km/h (0 Bft) S 180 11,8 C 0,0 km/h (0 Bft)
02.08.2015 08:20 14,0 C 14,1 C 87 % 1013,6 hPa 0,0 mm 0,5 km/h (0 Bft) S-SO 157 11,9 C 0,0 km/h (0 Bft)
02.08.2015 08:25 14,0 C 14,1 C 87 % 1013,6 hPa 0,0 mm 1,0 km/h (0 Bft) S 180 11,9 C 3,4 km/h (1 Bft)
02.08.2015 08:30 14,1 C 14,1 C 87 % 1013,9 hPa 0,0 mm 1,8 km/h (1 Bft) W-SW 247 12,0 C 3,6 km/h (1 Bft)
02.08.2015 08:35 14,1 C 14,2 C 87 % 1013,9 hPa 0,0 mm 1,3 km/h (1 Bft) S-SO 157 12,0 C 0,0 km/h (0 Bft)
02.08.2015 08:40 14,2 C 14,3 C 87 % 1013,9 hPa 0,0 mm 0,3 km/h (0 Bft) S 180 12,1 C 0,0 km/h (0 Bft)
02.08.2015 08:45 14,3 C 14,4 C 87 % 1013,9 hPa 0,0 mm 0,0 km/h (0 Bft) SO 135 12,2 C 0,0 km/h (0 Bft)
02.08.2015 08:50 14,3 C 14,3 C 87 % 1014,0 hPa 0,0 mm 0,0 km/h (0 Bft) O-SO 112 12,2 C 0,0 km/h (0 Bft)
02.08.2015 08:55 14,3 C 14,4 C 87 % 1014,0 hPa 0,0 mm 0,0 km/h (0 Bft) W-NW 292 12,2 C 0,0 km/h (0 Bft)
02.08.2015 09:00 14,3 C 14,3 C 87 % 1014,0 hPa 0,0 mm 0,3 km/h (0 Bft) W 270 12,2 C 3,6 km/h (1 Bft)
02.08.2015 09:05 14,3 C 14,3 C 87 % 1014,0 hPa 0,0 mm 0,5 km/h (0 Bft) W-SW 247 12,2 C 0,0 km/h (0 Bft)
02.08.2015 09:10 14,4 C 14,5 C 87 % 1014,2 hPa 0,7 mm 0,5 km/h (0 Bft) S-SW 202 12,3 C 4,9 km/h (1 Bft)
02.08.2015 09:15 14,4 C 14,5 C 87 % 1014,2 hPa 0,0 mm 0,3 km/h (0 Bft) NW 315 12,3 C 0,0 km/h (0 Bft)
02.08.2015 09:20 14,4 C 14,6 C 87 % 1014,2 hPa 0,0 mm 0,3 km/h (0 Bft) S 180 12,3 C 0,0 km/h (0 Bft)
02.08.2015 09:25 14,4 C 14,6 C 87 % 1014,2 hPa 0,0 mm 0,3 km/h (0 Bft) S 180 12,3 C 4,1 km/h (1 Bft)
02.08.2015 09:30 14,5 C 14,6 C 87 % 1014,3 hPa 0,0 mm 0,3 km/h (0 Bft) S 180 12,4 C 0,0 km/h (0 Bft)
02.08.2015 09:35 14,5 C 14,7 C 87 % 1014,3 hPa 0,0 mm 0,3 km/h (0 Bft) S-SO 157 12,4 C 0,0 km/h (0 Bft)
02.08.2015 09:40 14,6 C 14,9 C 87 % 1014,3 hPa 0,0 mm 0,0 km/h (0 Bft) S 180 12,5 C 0,0 km/h (0 Bft)
02.08.2015 09:45 14,7 C 15,0 C 87 % 1014,3 hPa 0,0 mm 0,0 km/h (0 Bft) S 180 12,6 C 0,0 km/h (0 Bft)
02.08.2015 09:50 14,8 C 15,3 C 87 % 1014,4 hPa 0,0 mm 0,3 km/h (0 Bft) S 180 12,7 C 0,0 km/h (0 Bft)
02.08.2015 09:55 15,0 C 15,5 C 86 % 1014,4 hPa 0,0 mm 0,3 km/h (0 Bft) NW 315 12,7 C 0,0 km/h (0 Bft)
02.08.2015 10:00 15,3 C 16,0 C 86 % 1014,4 hPa 0,0 mm 0,5 km/h (0 Bft) SW 225 13,0 C 9,3 km/h (2 Bft)
02.08.2015 10:05 15,4 C 16,1 C 86 % 1014,4 hPa 0,0 mm 1,8 km/h (1 Bft) S-SW 202 13,1 C 0,0 km/h (0 Bft)
02.08.2015 10:10 15,5 C 16,3 C 86 % 1014,4 hPa 0,0 mm 3,4 km/h (1 Bft) S 180 13,2 C 4,7 km/h (1 Bft)
02.08.2015 10:15 15,5 C 16,3 C 86 % 1014,4 hPa 0,0 mm 3,6 km/h (1 Bft) W 270 13,2 C 6,7 km/h (2 Bft)
02.08.2015 10:20 15,6 C 16,4 C 86 % 1014,4 hPa 0,0 mm 4,1 km/h (1 Bft) SW 225 13,3 C 11,9 km/h (2 Bft)
02.08.2015 10:25 15,5 C 16,3 C 86 % 1014,4 hPa 0,0 mm 4,1 km/h (1 Bft) SW 225 13,2 C 8,0 km/h (2 Bft)
02.08.2015 10:30 15,7 C 16,5 C 86 % 1014,6 hPa 0,0 mm 3,9 km/h (1 Bft) W-SW 247 13,4 C 2,8 km/h (1 Bft)
02.08.2015 10:35 15,8 C 16,7 C 86 % 1014,6 hPa 0,0 mm 2,8 km/h (1 Bft) W-NW 292 13,5 C 3,6 km/h (1 Bft)
02.08.2015 10:40 16,2 C 17,1 C 85 % 1014,6 hPa 0,0 mm 1,3 km/h (1 Bft) W-SW 247 13,7 C 0,0 km/h (0 Bft)
02.08.2015 10:45 16,2 C 17,3 C 85 % 1014,6 hPa 0,0 mm 0,5 km/h (0 Bft) W-SW 247 13,7 C 0,0 km/h (0 Bft)
02.08.2015 10:50 16,2 C 17,4 C 84 % 1015,0 hPa 0,0 mm 0,3 km/h (0 Bft) W-SW 247 13,5 C 0,0 km/h (0 Bft)
02.08.2015 10:55 16,2 C 17,3 C 84 % 1015,0 hPa 0,0 mm 0,0 km/h (0 Bft) W 270 13,5 C 2,6 km/h (1 Bft)
02.08.2015 11:00 16,2 C 17,3 C 84 % 1015,0 hPa 0,0 mm 0,5 km/h (0 Bft) W-SW 247 13,5 C 0,0 km/h (0 Bft)
02.08.2015 11:05 16,2 C 17,3 C 84 % 1015,0 hPa 0,0 mm 0,8 km/h (0 Bft) O-SO 112 13,5 C 0,0 km/h (0 Bft)
02.08.2015 11:10 16,1 C 17,5 C 84 % 1015,2 hPa 0,0 mm 0,3 km/h (0 Bft) S-SO 157 13,4 C 0,0 km/h (0 Bft)
02.08.2015 11:15 16,1 C 17,6 C 84 % 1015,2 hPa 0,0 mm 0,0 km/h (0 Bft) W 270 13,4 C 2,8 km/h (1 Bft)
02.08.2015 11:20 16,1 C 17,8 C 84 % 1015,2 hPa 0,0 mm 1,0 km/h (0 Bft) W-SW 247 13,4 C 0,0 km/h (0 Bft)
02.08.2015 11:25 16,2 C 17,8 C 84 % 1015,2 hPa 0,0 mm 1,3 km/h (1 Bft) S-SW 202 13,5 C 0,0 km/h (0 Bft)
02.08.2015 11:30 16,3 C 18,1 C 84 % 1015,2 hPa 0,0 mm 0,3 km/h (0 Bft) W-SW 247 13,6 C 0,0 km/h (0 Bft)
02.08.2015 11:35 16,4 C 18,2 C 83 % 1015,2 hPa 0,0 mm 0,3 km/h (0 Bft) W-SW 247 13,5 C 0,0 km/h (0 Bft)
02.08.2015 11:40 16,4 C 18,3 C 83 % 1015,2 hPa 0,0 mm 0,3 km/h (0 Bft) W 270 13,5 C 0,0 km/h (0 Bft)
02.08.2015 11:45 16,4 C 18,4 C 83 % 1015,2 hPa 0,0 mm 0,3 km/h (0 Bft) W 270 13,5 C 0,0 km/h (0 Bft)
02.08.2015 11:50 16,6 C 18,5 C 83 % 1015,4 hPa 0,0 mm 0,3 km/h (0 Bft) NW 315 13,7 C 0,0 km/h (0 Bft)
02.08.2015 11:55 16,4 C 18,5 C 83 % 1015,4 hPa 0,0 mm 1,8 km/h (1 Bft) S-SO 157 13,5 C 3,9 km/h (1 Bft)
02.08.2015 12:00 16,4 C 18,3 C 82 % 1015,4 hPa 0,0 mm 2,3 km/h (1 Bft) NO 45 13,3 C 10,1 km/h (2 Bft)
02.08.2015 12:05 16,3 C 18,3 C 82 % 1015,4 hPa 0,0 mm 4,1 km/h (1 Bft) S-SW 202 13,2 C 14,8 km/h (3 Bft)
02.08.2015 12:10 16,2 C 18,1 C 82 % 1015,2 hPa 0,0 mm 9,3 km/h (2 Bft) SW 225 13,1 C 15,8 km/h (3 Bft)
02.08.2015 12:15 16,4 C 18,3 C 82 % 1015,2 hPa 0,0 mm 8,5 km/h (2 Bft) S-SO 157 13,3 C 2,8 km/h (1 Bft)
02.08.2015 12:20 16,8 C 19,4 C 82 % 1015,2 hPa 0,0 mm 4,1 km/h (1 Bft) S-SW 202 13,7 C 4,7 km/h (1 Bft)
02.08.2015 12:25 17,3 C 20,2 C 82 % 1015,2 hPa 0,0 mm 2,3 km/h (1 Bft) S 180 14,2 C 3,4 km/h (1 Bft)
02.08.2015 12:30 17,8 C 21,6 C 82 % 1015,2 hPa 0,0 mm 1,0 km/h (0 Bft) O-NO 67 14,7 C 0,0 km/h (0 Bft)
02.08.2015 12:35 18,1 C 22,4 C 81 % 1015,2 hPa 0,0 mm 1,0 km/h (0 Bft) W-SW 247 14,8 C 0,0 km/h (0 Bft)
02.08.2015 12:40 18,3 C 23,2 C 80 % 1015,2 hPa 0,0 mm 0,8 km/h (0 Bft) SW 225 14,8 C 0,0 km/h (0 Bft)
02.08.2015 12:45 18,4 C 23,6 C 80 % 1015,2 hPa 0,0 mm 0,8 km/h (0 Bft) O-NO 67 14,9 C 0,0 km/h (0 Bft)
02.08.2015 12:50 18,5 C 24,1 C 78 % 1015,1 hPa 0,0 mm 0,0 km/h (0 Bft) W-SW 247 14,6 C 0,0 km/h (0 Bft)
02.08.2015 12:55 18,8 C 24,8 C 78 % 1015,1 hPa 0,0 mm 0,3 km/h (0 Bft) N-NW 337 14,9 C 2,8 km/h (1 Bft)
02.08.2015 13:00 19,3 C 25,8 C 76 % 1015,1 hPa 0,0 mm 1,3 km/h (1 Bft) W-SW 247 15,0 C 3,9 km/h (1 Bft)
02.08.2015 13:05 19,6 C 26,4 C 76 % 1015,1 hPa 0,0 mm 1,6 km/h (1 Bft) NW 315 15,2 C 4,1 km/h (1 Bft)
02.08.2015 13:10 19,9 C 26,8 C 75 % 1015,2 hPa 0,0 mm 1,6 km/h (1 Bft) NW 315 15,3 C 4,1 km/h (1 Bft)
02.08.2015 13:15 19,9 C 26,6 C 74 % 1015,2 hPa 0,0 mm 1,8 km/h (1 Bft) N-NW 337 15,1 C 3,4 km/h (1 Bft)
02.08.2015 13:20 20,1 C 26,0 C 73 % 1015,2 hPa 0,0 mm 2,1 km/h (1 Bft) N-NW 337 15,1 C 0,0 km/h (0 Bft)
02.08.2015 13:25 19,9 C 25,3 C 71 % 1015,2 hPa 0,0 mm 2,6 km/h (1 Bft) O-NO 67 14,5 C 3,6 km/h (1 Bft)
02.08.2015 13:30 19,9 C 24,7 C 71 % 1015,4 hPa 0,0 mm 4,4 km/h (1 Bft) O-NO 67 14,5 C 7,0 km/h (2 Bft)
02.08.2015 13:35 20,2 C 24,8 C 69 % 1015,4 hPa 0,0 mm 5,2 km/h (1 Bft) O-SO 112 14,3 C 6,2 km/h (2 Bft)
02.08.2015 13:40 20,5 C 25,9 C 68 % 1015,4 hPa 0,0 mm 6,0 km/h (2 Bft) O-NO 67 14,4 C 11,4 km/h (2 Bft)
02.08.2015 13:45 20,6 C 26,6 C 68 % 1015,4 hPa 0,0 mm 4,4 km/h (1 Bft) S-SW 202 14,5 C 0,0 km/h (0 Bft)
02.08.2015 13:50 20,5 C 26,6 C 68 % 1015,7 hPa 0,0 mm 2,3 km/h (1 Bft) S-SO 157 14,4 C 4,7 km/h (1 Bft)
02.08.2015 13:55 20,5 C 26,3 C 66 % 1015,7 hPa 0,0 mm 2,1 km/h (1 Bft) O-NO 67 13,9 C 7,8 km/h (2 Bft)
02.08.2015 14:00 20,5 C 25,8 C 66 % 1015,7 hPa 0,0 mm 2,8 km/h (1 Bft) O-NO 67 13,9 C 4,1 km/h (1 Bft)
02.08.2015 14:05 20,4 C 25,7 C 66 % 1015,7 hPa 0,0 mm 3,4 km/h (1 Bft) O-NO 67 13,8 C 4,7 km/h (1 Bft)
02.08.2015 14:10 20,4 C 25,7 C 66 % 1015,6 hPa 0,0 mm 3,9 km/h (1 Bft) NO 45 13,8 C 6,7 km/h (2 Bft)
02.08.2015 14:15 20,3 C 25,6 C 66 % 1015,6 hPa 0,0 mm 3,1 km/h (1 Bft) O-SO 112 13,7 C 5,7 km/h (1 Bft)
02.08.2015 14:20 20,3 C 25,8 C 65 % 1015,6 hPa 0,0 mm 2,3 km/h (1 Bft) N 360 13,5 C 8,3 km/h (2 Bft)
02.08.2015 14:25 20,4 C 25,4 C 66 % 1015,6 hPa 0,0 mm 2,3 km/h (1 Bft) O-NO 67 13,8 C 0,0 km/h (0 Bft)
02.08.2015 14:30 20,3 C 24,9 C 66 % 1015,4 hPa 0,0 mm 3,4 km/h (1 Bft) O-NO 67 13,7 C 6,2 km/h (2 Bft)
02.08.2015 14:35 20,2 C 24,6 C 68 % 1015,4 hPa 0,0 mm 3,1 km/h (1 Bft) O 90 14,1 C 5,2 km/h (1 Bft)
02.08.2015 14:40 20,4 C 25,0 C 66 % 1015,4 hPa 0,0 mm 3,4 km/h (1 Bft) N-NO 22 13,8 C 7,0 km/h (2 Bft)
02.08.2015 14:45 20,4 C 25,0 C 66 % 1015,4 hPa 0,0 mm 4,1 km/h (1 Bft) NO 45 13,8 C 7,3 km/h (2 Bft)
02.08.2015 14:50 20,6 C 25,4 C 65 % 1015,2 hPa 0,0 mm 5,2 km/h (1 Bft) NW 315 13,8 C 3,1 km/h (1 Bft)
02.08.2015 14:55 20,9 C 26,3 C 64 % 1015,2 hPa 0,0 mm 4,9 km/h (1 Bft) O-SO 112 13,8 C 6,7 km/h (2 Bft)
02.08.2015 15:00 20,4 C 25,0 C 64 % 1015,2 hPa 0,0 mm 3,4 km/h (1 Bft) SO 135 13,4 C 0,0 km/h (0 Bft)
02.08.2015 15:05 20,6 C 25,0 C 63 % 1015,2 hPa 0,0 mm 2,8 km/h (1 Bft) O-NO 67 13,3 C 5,2 km/h (1 Bft)
02.08.2015 15:10 20,7 C 25,4 C 63 % 1015,1 hPa 0,0 mm 4,9 km/h (1 Bft) NO 45 13,4 C 10,1 km/h (2 Bft)
02.08.2015 15:15 20,6 C 25,0 C 61 % 1015,1 hPa 0,0 mm 6,2 km/h (2 Bft) SO 135 12,8 C 4,7 km/h (1 Bft)
02.08.2015 15:20 20,4 C 24,7 C 61 % 1015,1 hPa 0,0 mm 4,1 km/h (1 Bft) NO 45 12,6 C 4,7 km/h (1 Bft)
02.08.2015 15:25 20,1 C 23,4 C 62 % 1014,9 hPa 0,0 mm 3,9 km/h (1 Bft) N-NO 22 12,6 C 6,2 km/h (2 Bft)
02.08.2015 15:26 20,1 C 23,4 C 62 % 1014,9 hPa 0,0 mm 3,9 km/h (1 Bft) N-NO 22 12,6 C 6,2 km/h (2 Bft)
02.08.2015 15:30 20,1 C 23,4 C 62 % 1014,9 hPa 0,0 mm 3,9 km/h (1 Bft) N-NO 22 12,6 C 6,2 km/h (2 Bft)
02.08.2015 15:35 20,7 C 24,5 C 61 % 1014,9 hPa 0,0 mm 3,4 km/h (1 Bft) N-NO 22 12,9 C 5,2 km/h (1 Bft)
02.08.2015 15:40 21,0 C 25,9 C 58 % 1014,9 hPa 0,0 mm 4,9 km/h (1 Bft) NO 45 12,4 C 8,5 km/h (2 Bft)
02.08.2015 15:45 21,2 C 26,3 C 59 % 1014,9 hPa 0,0 mm 5,2 km/h (1 Bft) N-NW 337 12,9 C 4,9 km/h (1 Bft)
02.08.2015 15:50 21,5 C 27,0 C 59 % 1014,6 hPa 0,0 mm 6,2 km/h (2 Bft) N-NO 22 13,1 C 22,0 km/h (4 Bft)
02.08.2015 15:55 21,3 C 26,2 C 57 % 1014,6 hPa 0,0 mm 9,1 km/h (2 Bft) NO 45 12,4 C 10,4 km/h (2 Bft)
02.08.2015 16:00 21,4 C 25,9 C 58 % 1014,6 hPa 0,0 mm 8,8 km/h (2 Bft) N-NO 22 12,8 C 7,8 km/h (2 Bft)
02.08.2015 16:05 21,9 C 27,1 C 59 % 1014,6 hPa 0,0 mm 5,4 km/h (1 Bft) NO 45 13,5 C 7,8 km/h (2 Bft)
02.08.2015 16:10 22,0 C 28,2 C 58 % 1014,4 hPa 0,0 mm 4,7 km/h (1 Bft) NO 45 13,3 C 13,7 km/h (3 Bft)
02.08.2015 16:15 21,4 C 27,7 C 57 % 1014,4 hPa 0,0 mm 6,5 km/h (2 Bft) N-NO 22 12,5 C 5,2 km/h (1 Bft)
02.08.2015 16:20 21,2 C 27,0 C 57 % 1014,4 hPa 0,0 mm 9,6 km/h (2 Bft) S-SO 157 12,3 C 11,1 km/h (2 Bft)
02.08.2015 16:25 20,9 C 26,3 C 57 % 1014,4 hPa 0,0 mm 10,9 km/h (2 Bft) O 90 12,1 C 13,2 km/h (3 Bft)
02.08.2015 16:30 20,8 C 25,8 C 57 % 1014,2 hPa 0,0 mm 10,9 km/h (2 Bft) N-NO 22 12,0 C 12,9 km/h (3 Bft)
02.08.2015 16:35 20,7 C 25,8 C 58 % 1014,2 hPa 0,0 mm 9,1 km/h (2 Bft) O-NO 67 12,1 C 6,5 km/h (2 Bft)
02.08.2015 16:40 20,6 C 25,6 C 58 % 1014,2 hPa 0,0 mm 8,8 km/h (2 Bft) O-NO 67 12,0 C 22,3 km/h (4 Bft)
02.08.2015 16:45 20,5 C 25,4 C 58 % 1014,2 hPa 0,0 mm 8,3 km/h (2 Bft) N-NW 337 11,9 C 5,4 km/h (1 Bft)
02.08.2015 16:50 20,6 C 26,4 C 60 % 1014,3 hPa 0,0 mm 4,9 km/h (1 Bft) O-NO 67 12,6 C 12,2 km/h (2 Bft)
02.08.2015 16:55 20,6 C 25,2 C 59 % 1014,3 hPa 0,0 mm 6,2 km/h (2 Bft) NO 45 12,3 C 5,7 km/h (1 Bft)
02.08.2015 17:00 20,6 C 23,3 C 59 % 1014,3 hPa 0,0 mm 8,0 km/h (2 Bft) O 90 12,3 C 9,1 km/h (2 Bft)
02.08.2015 17:05 20,5 C 22,5 C 58 % 1014,3 hPa 0,0 mm 6,5 km/h (2 Bft) O-NO 67 11,9 C 10,6 km/h (2 Bft)
02.08.2015 17:10 20,5 C 21,8 C 59 % 1014,1 hPa 0,0 mm 8,5 km/h (2 Bft) NO 45 12,2 C 8,0 km/h (2 Bft)
02.08.2015 17:15 20,5 C 21,5 C 58 % 1014,1 hPa 0,0 mm 9,6 km/h (2 Bft) O-NO 67 11,9 C 21,5 km/h (4 Bft)
02.08.2015 17:20 20,5 C 21,2 C 58 % 1014,1 hPa 0,0 mm 9,8 km/h (2 Bft) O-NO 67 11,9 C 12,7 km/h (3 Bft)
02.08.2015 17:25 20,7 C 21,2 C 59 % 1014,1 hPa 0,0 mm 9,1 km/h (2 Bft) SW 225 12,4 C 3,6 km/h (1 Bft)
02.08.2015 17:30 20,6 C 21,3 C 59 % 1014,1 hPa 0,0 mm 6,2 km/h (2 Bft) S-SO 157 12,3 C 10,4 km/h (2 Bft)
02.08.2015 17:35 20,5 C 21,3 C 59 % 1014,1 hPa 0,0 mm 5,7 km/h (1 Bft) O-NO 67 12,2 C 7,0 km/h (2 Bft)
02.08.2015 17:40 20,6 C 21,3 C 59 % 1014,1 hPa 0,0 mm 6,7 km/h (2 Bft) NO 45 12,3 C 13,2 km/h (3 Bft)
02.08.2015 17:45 20,7 C 21,3 C 59 % 1014,1 hPa 0,0 mm 6,7 km/h (2 Bft) SO 135 12,4 C 12,9 km/h (3 Bft)
02.08.2015 17:50 20,7 C 21,3 C 59 % 1014,0 hPa 0,0 mm 8,3 km/h (2 Bft) NO 45 12,4 C 0,0 km/h (0 Bft)
02.08.2015 17:55 20,5 C 21,3 C 59 % 1014,0 hPa 0,0 mm 7,8 km/h (2 Bft) O 90 12,2 C 13,2 km/h (3 Bft)
02.08.2015 18:00 20,6 C 21,2 C 59 % 1014,0 hPa 0,0 mm 6,0 km/h (2 Bft) N-NO 22 12,3 C 11,7 km/h (2 Bft)
02.08.2015 18:05 20,7 C 21,2 C 60 % 1014,0 hPa 0,0 mm 7,0 km/h (2 Bft) N-NO 22 12,7 C 9,3 km/h (2 Bft)
02.08.2015 18:10 20,5 C 21,2 C 59 % 1013,9 hPa 0,0 mm 5,4 km/h (1 Bft) O-SO 112 12,2 C 7,8 km/h (2 Bft)
02.08.2015 18:15 20,5 C 21,1 C 59 % 1013,9 hPa 0,0 mm 7,0 km/h (2 Bft) NW 315 12,2 C 8,3 km/h (2 Bft)
02.08.2015 18:20 20,5 C 21,1 C 59 % 1013,9 hPa 0,0 mm 8,3 km/h (2 Bft) N-NO 22 12,2 C 13,5 km/h (3 Bft)
02.08.2015 18:25 20,5 C 21,0 C 59 % 1013,9 hPa 0,0 mm 6,7 km/h (2 Bft) O-SO 112 12,2 C 4,1 km/h (1 Bft)
02.08.2015 18:30 20,4 C 21,0 C 59 % 1014,1 hPa 0,0 mm 6,0 km/h (2 Bft) N-NO 22 12,1 C 7,0 km/h (2 Bft)
02.08.2015 18:35 20,4 C 21,0 C 59 % 1014,1 hPa 0,0 mm 6,7 km/h (2 Bft) O 90 12,1 C 5,4 km/h (1 Bft)
02.08.2015 18:40 20,4 C 20,9 C 59 % 1014,1 hPa 0,0 mm 7,5 km/h (2 Bft) N-NO 22 12,1 C 14,2 km/h (3 Bft)
02.08.2015 18:45 20,3 C 20,8 C 59 % 1014,1 hPa 0,0 mm 7,3 km/h (2 Bft) O-SO 112 12,0 C 4,9 km/h (1 Bft)
02.08.2015 18:50 20,3 C 20,8 C 59 % 1014,0 hPa 0,0 mm 7,8 km/h (2 Bft) N-NO 22 12,0 C 14,2 km/h (3 Bft)
02.08.2015 18:55 20,3 C 20,8 C 59 % 1014,0 hPa 0,0 mm 7,0 km/h (2 Bft) O-NO 67 12,0 C 11,1 km/h (2 Bft)
02.08.2015 19:00 20,3 C 20,6 C 59 % 1014,0 hPa 0,0 mm 7,3 km/h (2 Bft) SO 135 12,0 C 3,4 km/h (1 Bft)
02.08.2015 19:05 20,3 C 20,6 C 59 % 1014,0 hPa 0,0 mm 7,5 km/h (2 Bft) O-NO 67 12,0 C 11,7 km/h (2 Bft)
02.08.2015 19:10 20,3 C 21,8 C 59 % 1014,1 hPa 0,0 mm 7,5 km/h (2 Bft) N-NO 22 12,0 C 10,9 km/h (2 Bft)
02.08.2015 19:15 20,2 C 22,8 C 59 % 1014,1 hPa 0,0 mm 7,3 km/h (2 Bft) N-NW 337 11,9 C 8,8 km/h (2 Bft)
02.08.2015 19:20 20,2 C 23,6 C 59 % 1014,1 hPa 0,0 mm 6,7 km/h (2 Bft) O-SO 112 11,9 C 5,7 km/h (1 Bft)
02.08.2015 19:25 20,2 C 23,7 C 59 % 1014,1 hPa 0,0 mm 7,5 km/h (2 Bft) NO 45 11,9 C 10,6 km/h (2 Bft)
02.08.2015 19:30 20,1 C 24,0 C 60 % 1014,1 hPa 0,0 mm 5,7 km/h (1 Bft) N-NO 22 12,1 C 6,0 km/h (2 Bft)
02.08.2015 19:35 20,1 C 24,1 C 60 % 1014,1 hPa 0,0 mm 4,7 km/h (1 Bft) N-NO 22 12,1 C 7,8 km/h (2 Bft)
02.08.2015 19:40 20,0 C 24,3 C 61 % 1014,1 hPa 0,0 mm 3,6 km/h (1 Bft) O-NO 67 12,2 C 3,1 km/h (1 Bft)
02.08.2015 19:45 19,9 C 24,2 C 61 % 1014,1 hPa 0,0 mm 2,6 km/h (1 Bft) O 90 12,2 C 0,0 km/h (0 Bft)
02.08.2015 19:50 19,6 C 24,3 C 61 % 1014,1 hPa 0,0 mm 2,1 km/h (1 Bft) NO 45 11,9 C 3,4 km/h (1 Bft)
02.08.2015 19:55 19,5 C 24,3 C 63 % 1014,1 hPa 0,0 mm 1,0 km/h (0 Bft) SO 135 12,3 C 0,0 km/h (0 Bft)
02.08.2015 20:00 19,5 C 24,0 C 63 % 1014,1 hPa 0,0 mm 0,8 km/h (0 Bft) NO 45 12,3 C 0,0 km/h (0 Bft)
02.08.2015 20:05 19,3 C 24,0 C 64 % 1014,1 hPa 0,0 mm 0,3 km/h (0 Bft) N-NO 22 12,3 C 0,0 km/h (0 Bft)
02.08.2015 20:10 19,1 C 23,6 C 64 % 1013,9 hPa 0,0 mm 0,0 km/h (0 Bft) SO 135 12,1 C 0,0 km/h (0 Bft)
02.08.2015 20:15 18,9 C 23,5 C 64 % 1013,9 hPa 0,0 mm 0,0 km/h (0 Bft) SO 135 11,9 C 0,0 km/h (0 Bft)
02.08.2015 20:20 18,5 C 23,0 C 65 % 1013,9 hPa 0,0 mm 0,0 km/h (0 Bft) N 360 11,8 C 2,6 km/h (1 Bft)
02.08.2015 20:25 18,4 C 22,6 C 65 % 1013,9 hPa 0,0 mm 0,3 km/h (0 Bft) O-SO 112 11,7 C 3,9 km/h (1 Bft)
02.08.2015 20:30 18,0 C 21,7 C 66 % 1014,2 hPa 0,0 mm 0,3 km/h (0 Bft) S-SO 157 11,6 C 0,0 km/h (0 Bft)
02.08.2015 20:35 17,7 C 21,2 C 68 % 1014,2 hPa 0,0 mm 0,3 km/h (0 Bft) O-SO 112 11,7 C 3,6 km/h (1 Bft)
02.08.2015 20:40 17,5 C 20,3 C 69 % 1014,2 hPa 0,0 mm 0,3 km/h (0 Bft) SO 135 11,7 C 0,0 km/h (0 Bft)
02.08.2015 20:45 17,4 C 19,9 C 69 % 1014,2 hPa 0,0 mm 0,3 km/h (0 Bft) O-SO 112 11,7 C 0,0 km/h (0 Bft)
02.08.2015 20:50 17,1 C 18,7 C 70 % 1014,2 hPa 0,0 mm 0,0 km/h (0 Bft) SO 135 11,6 C 0,0 km/h (0 Bft)
02.08.2015 20:55 16,8 C 18,0 C 71 % 1014,2 hPa 0,0 mm 0,0 km/h (0 Bft) S 180 11,5 C 0,0 km/h (0 Bft)
02.08.2015 21:00 16,6 C 17,1 C 72 % 1014,2 hPa 0,0 mm 0,0 km/h (0 Bft) SO 135 11,5 C 0,0 km/h (0 Bft)
02.08.2015 21:05 16,3 C 16,5 C 72 % 1014,2 hPa 0,0 mm 0,0 km/h (0 Bft) S-SO 157 11,2 C 0,0 km/h (0 Bft)
02.08.2015 21:10 16,2 C 16,1 C 74 % 1014,2 hPa 0,0 mm 0,0 km/h (0 Bft) S-SO 157 11,6 C 0,0 km/h (0 Bft)
02.08.2015 21:15 16,1 C 15,9 C 74 % 1014,2 hPa 0,0 mm 0,0 km/h (0 Bft) S 180 11,5 C 0,0 km/h (0 Bft)
02.08.2015 21:20 16,0 C 15,7 C 75 % 1014,2 hPa 0,0 mm 0,0 km/h (0 Bft) SO 135 11,6 C 0,0 km/h (0 Bft)
02.08.2015 21:25 15,9 C 15,6 C 76 % 1014,2 hPa 0,0 mm 0,0 km/h (0 Bft) S-SO 157 11,7 C 0,0 km/h (0 Bft)
02.08.2015 21:27 15,8 C 15,5 C 76 % 1014,3 hPa 0,0 mm 0,8 km/h (0 Bft) SO 135 11,6 C 2,6 km/h (1 Bft)
02.08.2015 21:30 15,8 C 15,5 C 76 % 1014,3 hPa 0,0 mm 0,8 km/h (0 Bft) SO 135 11,6 C 2,6 km/h (1 Bft)
02.08.2015 21:35 15,8 C 15,5 C 76 % 1014,3 hPa 0,0 mm 0,8 km/h (0 Bft) O-SO 112 11,6 C 0,0 km/h (0 Bft)
02.08.2015 21:40 15,6 C 15,4 C 76 % 1014,3 hPa 0,0 mm 0,3 km/h (0 Bft) O-SO 112 11,4 C 0,0 km/h (0 Bft)
02.08.2015 21:45 15,4 C 15,2 C 76 % 1014,3 hPa 0,0 mm 0,0 km/h (0 Bft) SO 135 11,2 C 0,0 km/h (0 Bft)
02.08.2015 21:50 15,4 C 15,1 C 77 % 1014,5 hPa 0,0 mm 0,0 km/h (0 Bft) SO 135 11,4 C 0,0 km/h (0 Bft)
02.08.2015 21:55 15,2 C 14,9 C 76 % 1014,5 hPa 0,0 mm 0,0 km/h (0 Bft) SO 135 11,0 C 0,0 km/h (0 Bft)
02.08.2015 22:00 15,3 C 14,9 C 77 % 1014,5 hPa 0,0 mm 0,0 km/h (0 Bft) O-SO 112 11,3 C 0,0 km/h (0 Bft)
02.08.2015 22:05 15,1 C 14,8 C 77 % 1014,5 hPa 0,0 mm 0,0 km/h (0 Bft) S-SO 157 11,1 C 0,0 km/h (0 Bft)
02.08.2015 22:10 15,1 C 14,7 C 77 % 1014,2 hPa 0,0 mm 0,0 km/h (0 Bft) S 180 11,1 C 0,0 km/h (0 Bft)
02.08.2015 22:15 15,0 C 14,8 C 76 % 1014,2 hPa 0,0 mm 0,0 km/h (0 Bft) S-SO 157 10,8 C 0,0 km/h (0 Bft)
02.08.2015 22:20 14,5 C 14,3 C 76 % 1014,2 hPa 0,0 mm 0,0 km/h (0 Bft) O 90 10,3 C 0,0 km/h (0 Bft)
02.08.2015 22:25 14,1 C 14,0 C 77 % 1014,2 hPa 0,0 mm 0,0 km/h (0 Bft) O-SO 112 10,1 C 0,0 km/h (0 Bft)
02.08.2015 22:30 14,0 C 14,0 C 77 % 1014,2 hPa 0,0 mm 0,0 km/h (0 Bft) O-NO 67 10,0 C 0,0 km/h (0 Bft)
02.08.2015 22:35 13,9 C 13,8 C 77 % 1014,2 hPa 0,0 mm 0,0 km/h (0 Bft) SO 135 9,9 C 0,0 km/h (0 Bft)
02.08.2015 22:40 13,7 C 13,8 C 78 % 1014,2 hPa 0,0 mm 0,0 km/h (0 Bft) O-SO 112 9,9 C 0,0 km/h (0 Bft)
02.08.2015 22:45 13,6 C 13,5 C 78 % 1014,2 hPa 0,0 mm 0,0 km/h (0 Bft) O 90 9,8 C 0,0 km/h (0 Bft)
02.08.2015 22:50 13,2 C 13,0 C 78 % 1014,2 hPa 0,0 mm 0,0 km/h (0 Bft) O-NO 67 9,4 C 0,0 km/h (0 Bft)
02.08.2015 22:55 12,9 C 12,7 C 79 % 1014,2 hPa 0,0 mm 0,0 km/h (0 Bft) O-NO 67 9,3 C 0,0 km/h (0 Bft)
02.08.2015 23:00 12,7 C 12,4 C 79 % 1014,2 hPa 0,0 mm 0,0 km/h (0 Bft) O-NO 67 9,2 C 0,0 km/h (0 Bft)
02.08.2015 23:05 12,7 C 12,4 C 80 % 1014,2 hPa 0,0 mm 0,0 km/h (0 Bft) O-NO 67 9,3 C 0,0 km/h (0 Bft)
02.08.2015 23:10 12,5 C 12,2 C 81 % 1014,2 hPa 0,0 mm 0,0 km/h (0 Bft) O-NO 67 9,3 C 0,0 km/h (0 Bft)
02.08.2015 23:15 12,4 C 12,2 C 82 % 1014,2 hPa 0,0 mm 0,0 km/h (0 Bft) O-NO 67 9,4 C 0,0 km/h (0 Bft)
02.08.2015 23:20 12,4 C 12,2 C 82 % 1014,2 hPa 0,0 mm 0,0 km/h (0 Bft) O-NO 67 9,4 C 0,0 km/h (0 Bft)
02.08.2015 23:25 12,4 C 12,1 C 83 % 1014,2 hPa 0,0 mm 0,0 km/h (0 Bft) O 90 9,6 C 0,0 km/h (0 Bft)
02.08.2015 23:30 12,6 C 12,3 C 83 % 1014,1 hPa 0,0 mm 0,0 km/h (0 Bft) O-NO 67 9,8 C 0,0 km/h (0 Bft)
02.08.2015 23:35 12,7 C 12,4 C 84 % 1014,1 hPa 0,0 mm 0,0 km/h (0 Bft) O 90 10,1 C 0,0 km/h (0 Bft)
02.08.2015 23:40 12,5 C 12,3 C 84 % 1014,1 hPa 0,0 mm 0,0 km/h (0 Bft) S-SO 157 9,9 C 0,0 km/h (0 Bft)
02.08.2015 23:45 12,2 C 12,1 C 84 % 1014,1 hPa 0,0 mm 0,0 km/h (0 Bft) NW 315 9,6 C 0,0 km/h (0 Bft)
02.08.2015 23:50 12,0 C 11,9 C 84 % 1014,2 hPa 0,0 mm 0,0 km/h (0 Bft) N-NW 337 9,4 C 0,0 km/h (0 Bft)
02.08.2015 23:55 11,9 C 11,7 C 84 % 1014,2 hPa 0,0 mm 0,0 km/h (0 Bft) N-NW 337 9,3 C 0,0 km/h (0 Bft)
_ Min-Zeit 23:55 23:55 16:30 00:05 - 23:55 - - 23:00 23:55
Minimum _ 11,9 C 11,7 C 57 % 1012,1 hPa - 0,0 km/h (0 Bft) - - 9,2 C 0,0 km/h (0 Bft)
_ Max-Zeit 16:10 16:10 06:55 14:05 09:10 16:30 - - 13:10 16:40
Maximum _ 22,0 C 28,2 C 90 % 1015,7 hPa 0,7 mm 10,9 km/h
N-NO (2 Bft)
- - 15,3 C 22,3 km/h
O-NO (4 Bft)
Durchschnitt _ 16,3 C 17,7 C 78 % 1013,9 hPa #4,8 mm 2,1 km/h (1 Bft) O-NO - 12,1 C 3,0 km/h (1 Bft)